BGBWBGGH

Guest
Details From BGBW - Narsarsuaq
To BGGH - Nuuk
Flight Number -
Tags generated
Created
Modified
Stats Distance 264 nm / 488 km
Max Altitude 34,000 ft / 10,363 m
Waypoints 4
Social Downloads 0
Likes 0
Share VATSIM

Download

Looking for another format? Having issues loading an existing format? Contact us
Advertisement - Login to hide

Notes

Basic altitude profile: - Ascent Rate: 2500ft/min - Ascent Speed: 250kts - Cruise Altitude: 35000ft - Cruise Speed: 420kts - Descent Rate: 1500ft/min - Descent Speed: 250kts Options: - Use NATs: yes - Use PACOTS: yes - Use low airways: yes - Use high airways: yes

Route

BGBW KITAP W26 KU BGGH

ID Type Via Altitude Latitude Longitude Leg Dist Tot Dist Heading (true) Name
O BGBW APT - 0 ft / 0 m 61.16052˚ -45.42598˚ - 0 nm - Narsarsuaq
KITAP FIX - 34,000 ft / 10,363 m 62.41167˚ -47.99583˚ 104 nm 104 nm 317° / 315° -
KU NDB W26 (AWY-LO) 10,500 ft / 3,200 m 64.07000˚ -52.01306˚ 147 nm 252 nm 314° / 311° KOOK ISLANDS NDB
O BGGH APT - 0 ft / 0 m 64.19302˚ -51.67645˚ 11 nm 263 nm 50° / 50° Nuuk

Altitude Profile

Advertisement - Login to hide

Weather


0- 5 10 15 20 25 30 35+ Temperature / ° C

Clouds and Precipitation
Forecast for 2017-12-16 12:00 UTC. Updated 2 hours ago

Ground ~20,000 ft ~40,000 ft Winds

BGBW

Details ICAO BGBW (UAK)
Name Narsarsuaq
Region Greenland
Timezone America/Godthab (UTC-3.0)
Stats Elevation 112 ft / 34 m (AMSL)
Location 61.160516° -45.425976°
Runways 1
Magnetic Variation 22.904° W

METAR

BGBW 161250Z 06010KT 9999 FEW025 BKN045 BKN055 M01/M10 Q0985

Decode

TAF

Not found

Departure Runways

ID Width Length Bearing (true) Bearing (mag) Surface Threshold Offset Overrun Length
07 148 ft / 45 m 5,921 ft / 1,805 m 40.57° 63.47° Concrete 0 ft / 0 m 0 ft / 0 m
25 148 ft / 45 m 5,921 ft / 1,805 m 220.58° 243.48° Concrete 0 ft / 0 m 279 ft / 85 m

BGGH

Details ICAO BGGH (GOH)
Name Nuuk
Region Greenland
Timezone America/Godthab (UTC-3.0)
Stats Elevation 283 ft / 86 m (AMSL)
Location 64.193021° -51.676454°
Runways 1
Magnetic Variation 27.017° W

METAR

BGGH 161250Z 05008KT 9999 FEW060 M03/M04 Q0982

Decode

TAF

Not found

Destination Runways

ID Width Length Bearing (true) Bearing (mag) Surface Threshold Offset Overrun Length
05 98 ft / 30 m 3,113 ft / 949 m 18.44° 45.46° Asphalt 0 ft / 0 m 0 ft / 0 m
23 98 ft / 30 m 3,113 ft / 949 m 198.44° 225.46° Asphalt 0 ft / 0 m 0 ft / 0 m

Popular Alternatives